[[{"header":{"parameterUnit":"m.s-1","parameterCategory":1,"la1":30.2991,"la2":30.254,"lo1":-89.0895,"lo2":-89.0444,"dy":0.0017,"dx":0.0017,"nx":28,"ny":28,"refTime":"2024-10-06T09:00:00:Z","depth":0,"parameterNumber":2,"parameterNumberName":"U-component_of_WINDS"},"data":[0,0,0,0,0,0,0,0,0,0,0,0,0,0,0,0,0,0,0,0,0,0,0,0,0,0,0,0,0,0,0,0,0,0,0,0,0,0,0,0,0,0,0,0,0,0,0,0,0,0,0,0,0,0,0,0,0,0,-2.3733,-2.3733,0,-2.3803,-2.3804,-2.3805,-2.3725,-2.3722,-2.3719,-2.3716,-2.3792,-2.3797,-2.3802,0,0,0,0,0,0,0,0,0,0,0,0,0,-2.3533,-2.3537,-2.3732,-2.3733,-2.3734,-2.3803,-2.3804,-2.3805,-2.3726,-2.3722,-2.3718,-2.3715,-2.3791,-2.3797,-2.3802,0,0,0,0,0,0,0,0,0,0,0,0,0,-2.3613,-2.3538,-2.3732,-2.3703,-2.3701,-2.3803,-2.3804,-2.3805,-2.3726,-2.3722,-2.3717,-2.3713,-2.3789,-2.3796,-2.3803,-2.3938,0,0,-2.3825,-2.3828,0,0,0,0,0,0,0,0,-2.3609,-2.3621,-2.3706,-2.3705,-2.3703,-2.375,-2.3761,-2.385,-2.3728,-2.3717,-2.3716,-2.3711,-2.3782,-2.379,-2.3813,-2.3942,-2.3945,-2.3826,-2.383,-2.3833,-2.3835,0,0,0,0,0,0,0,-2.3603,-2.3617,-2.376,-2.3708,-2.3706,-2.3687,-2.3694,-2.3778,-2.3774,-2.3718,-2.3712,-2.3721,-2.3781,-2.3806,-2.3814,-2.3946,-2.3826,-2.3832,-2.3837,-2.3839,-2.419,-2.4195,0,0,0,0,0,0,-2.3601,-2.3613,-2.3758,-2.3762,-2.3644,-2.3695,-2.3702,-2.374,-2.3773,-2.3774,-2.3725,-2.3717,-2.3796,-2.3806,-2.3817,-2.3978,-2.3833,-2.384,-2.3844,-2.4185,-2.4191,-2.4197,0,0,0,0,0,0,-2.3597,-2.3614,-2.3755,-2.3686,-2.3703,-2.3703,-2.3746,-2.3744,-2.3769,-2.3779,-2.3778,-2.3752,-2.3793,-2.3807,-2.3909,-2.398,-2.3843,-2.385,-2.418,-2.4187,-2.4194,-2.4302,0,0,0,0,0,0,-2.3591,-2.3613,-2.3664,-2.3688,-2.3707,-2.3846,-2.3751,-2.3748,-2.3782,-2.3772,-2.3804,-2.3804,-2.379,-2.3898,-2.3916,-2.3987,-2.3856,-2.4173,-2.4183,-2.4192,-2.4293,-2.4313,-2.433,0,0,0,0,0,-2.3584,-2.3692,-2.3667,-2.3685,-2.377,-2.385,-2.3861,-2.3841,-2.3788,-2.3839,-2.3845,-2.3803,-2.3969,-2.3909,-2.3928,-2.4003,-2.4169,-2.418,-2.4191,-2.4284,-2.4309,-2.4329,0,0,0,0,0,0,-2.3678,-2.3695,-2.3667,-2.3786,-2.3817,-2.3836,-2.3901,-2.3868,-2.3916,-2.3905,-2.388,-2.3888,-2.3997,-2.4009,-2.3943,-2.4136,-2.406,-2.4076,-2.4124,-2.4148,-2.4166,-2.4162,-2.3862,0,0,0,0,0,-2.3712,-2.3774,-2.3786,-2.389,-2.3906,-2.3901,-2.3935,-2.3917,-2.3949,-2.3962,-2.3975,-2.4009,-2.4068,-2.4108,-2.4163,-2.4293,-2.43,-2.4354,-2.4373,-2.4388,-2.4403,-2.4474,-2.4499,-2.4234,-2.4233,-2.4233,0,0,-2.3784,-2.3801,-2.3842,-2.3909,-2.3931,-2.3997,-2.3913,-2.3986,-2.4036,-2.3974,-2.4071,-2.4082,-2.4118,-2.4235,-2.4287,-2.4249,-2.4477,-2.4402,-2.4414,-2.4421,-2.4488,-2.4513,-2.4535,-2.4241,-2.424,-2.4239,0,0,-2.395,-2.3968,-2.4057,-2.408,-2.4114,-2.4109,-2.4131,-2.4155,-2.416,-2.4257,-2.4212,-2.427,-2.4373,-2.44,-2.4428,-2.4603,-2.4568,-2.4622,-2.4721,-2.479,-2.4811,-2.483,-2.4895,-2.4918,-2.4636,-2.4636,-2.4636,0,-2.4036,-2.4133,-2.4107,-2.4184,-2.4215,-2.416,-2.4251,-2.4275,-2.4326,-2.435,-2.4306,-2.4434,-2.4454,-2.4577,-2.462,-2.4643,-2.4668,-2.462,-2.481,-2.4828,-2.4845,-2.4907,-2.4931,-2.4643,-2.4642,-2.4641,-2.4641,0,-2.4237,-2.4305,-2.4373,-2.4423,-2.4461,-2.4545,-2.4533,-2.4576,-2.4554,-2.4555,-2.4655,-2.4676,-2.4736,-2.4763,-2.4743,-2.4884,-2.486,-2.4813,-2.4737,-2.4877,-2.4935,-2.4958,-2.4652,-2.465,-2.4648,-2.4646,0,0,-2.4466,-2.4499,-2.4525,-2.4547,-2.458,-2.4633,-2.4714,-2.477,-2.4808,-2.4845,-2.4914,-2.5001,-2.4959,-2.499,-2.4972,-2.5033,-2.5173,-2.4979,-2.498,-2.5017,-2.5332,-2.5369,-2.5397,-2.5148,-2.5153,-2.5156,-2.533,0,-2.4634,-2.4774,-2.4753,-2.4889,-2.4952,-2.49,-2.4971,-2.5,-2.5002,-2.5057,-2.506,-2.5124,-2.5061,-2.508,-2.5138,-2.5144,-2.5237,-2.5131,-2.5215,-2.5218,-2.521,-2.5426,-2.5465,-2.5629,-2.5352,-2.5356,-2.5359,0,-2.4849,-2.4892,-2.5034,-2.5058,-2.5084,-2.5148,-2.5198,-2.5251,-2.5282,-2.528,-2.5315,-2.5286,-2.5369,-2.5288,-2.5403,-2.5332,-2.5364,-2.5373,-2.5379,-2.5388,-2.5299,-2.5444,-2.568,-2.5706,-2.5393,-2.5391,-2.5388,0,-2.5005,-2.5098,-2.5196,-2.5216,-2.5245,-2.5292,-2.5306,-2.5333,-2.5369,-2.5413,-2.5436,-2.5489,-2.552,-2.5562,-2.555,-2.5492,-2.5668,-2.5586,-2.5671,-2.5671,-2.5713,-2.5711,-2.596,-2.5729,-2.5729,-2.5728,-2.5728,0,-2.5196,-2.5286,-2.5266,-2.5327,-2.5426,-2.5401,-2.55,-2.5508,-2.5532,-2.5594,-2.5552,-2.5611,-2.5589,-2.5648,-2.5638,-2.5736,-2.5749,-2.5751,-2.5748,-2.5757,-2.5757,-2.578,-2.5769,-2.5735,-2.5733,-2.5732,-2.5731,0,-2.5388,-2.5378,-2.5481,-2.55,-2.5507,-2.5579,-2.5596,-2.5653,-2.5651,-2.573,-2.5747,-2.5745,-2.5812,-2.5802,-2.5877,-2.587,-2.5993,-2.5974,-2.5982,-2.5979,-2.6065,-2.6058,-2.634,-2.6377,-2.612,-2.6122,-2.6124,0,-2.5512,-2.558,-2.5605,-2.5643,-2.5661,-2.5722,-2.5758,-2.5735,-2.5775,-2.5816,-2.5869,-2.5931,-2.598,-2.6089,-2.6095,-2.6152,-2.6137,-2.6231,-2.6145,-2.6152,-2.6141,-2.6139,-2.6146,-2.625,-2.6253,-2.6255,-2.6257,0,-2.5734,-2.5726,-2.5778,-2.583,-2.5873,-2.5913,-2.5949,-2.5982,-2.5963,-2.601,-2.6076,-2.6114,-2.619,-2.6253,-2.6306,-2.6322,-2.6288,-2.6283,-2.6306,-2.6317,-2.632,-2.6322,-2.6032,-2.6278,-2.6276,-2.6274,-2.6273,-2.6272,-2.5898,-2.5956,-2.5983,-2.6044,-2.6067,-2.6102,-2.6157,-2.6161,-2.6216,-2.6275,-2.6258,-2.6335,-2.6365,-2.6433,-2.6455,-2.6515,-2.648,-2.6513,-2.6522,-2.6531,-2.6543,-2.6308,-2.6524,-2.6524,-2.6523,-2.6523,-2.6522,0,-2.612,-2.6135,-2.619,-2.6241,-2.6289,-2.6249,-2.6286,-2.6329,-2.6397,-2.6427,-2.6476,-2.6553,-2.6614,-2.6625,-2.6683,-2.673,-2.6715,-2.6746,-2.6744,-2.6749,-2.6569,-2.6544,-2.6757,-2.6757,-2.6757,-2.6757,-2.6757,-2.6757,-2.6242,-2.6339,-2.6333,-2.6442,-2.6456,-2.653,-2.6555,-2.6587,-2.6611,-2.6699,-2.6749,-2.6754,-2.6778,-2.6837,-2.6892,-2.6893,-2.6918,-2.6956,-2.6952,-2.6784,-2.6761,-2.6739,-2.6716,-2.6961,-2.6961,-2.7127,-2.7128,-2.7129]},{"header":{"parameterUnit":"m.s-1","parameterCategory":1,"la1":30.2991,"la2":30.254,"lo1":-89.0895,"lo2":-89.0444,"dy":0.0017,"dx":0.0017,"nx":28,"ny":28,"refTime":"2024-10-06T09:00:00:Z","depth":0,"parameterNumber":3,"parameterNumberName":"V-component_of_WINDS"},"data":[0,0,0,0,0,0,0,0,0,0,0,0,0,0,0,0,0,0,0,0,0,0,0,0,0,0,0,0,0,0,0,0,0,0,0,0,0,0,0,0,0,0,0,0,0,0,0,0,0,0,0,0,0,0,0,0,0,0,-3.9927,-3.9927,0,-3.993,-3.993,-3.993,-3.9863,-3.9861,-3.9859,-3.9857,-3.9861,-3.9863,-3.9864,0,0,0,0,0,0,0,0,0,0,0,0,0,-3.986,-3.9862,-3.9927,-3.9927,-3.9927,-3.993,-3.993,-3.993,-3.9863,-3.9861,-3.9859,-3.9857,-3.986,-3.9862,-3.9865,0,0,0,0,0,0,0,0,0,0,0,0,0,-3.9879,-3.9862,-3.9927,-3.9894,-3.9891,-3.993,-3.993,-3.993,-3.9864,-3.9861,-3.9858,-3.9856,-3.986,-3.9862,-3.9865,-3.9936,0,0,-3.9873,-3.9874,0,0,0,0,0,0,0,0,-3.9878,-3.9881,-3.9898,-3.9896,-3.9893,-3.9893,-3.9908,-3.9932,-3.9864,-3.9874,-3.9857,-3.9854,-3.9874,-3.9875,-3.9882,-3.9936,-3.9937,-3.9873,-3.9875,-3.9876,-3.9877,0,0,0,0,0,0,0,-3.9877,-3.9881,-3.9928,-3.9899,-3.9895,-3.9878,-3.9878,-3.9912,-3.9889,-3.9873,-3.9868,-3.9869,-3.9872,-3.988,-3.9882,-3.9937,-3.9873,-3.9876,-3.9877,-3.9878,-4.0048,-4.0051,0,0,0,0,0,0,-3.988,-3.988,-3.9928,-3.9928,-3.9879,-3.9882,-3.9881,-3.9896,-3.9889,-3.9885,-3.9872,-3.9866,-3.9876,-3.9878,-3.9881,-3.9963,-3.9876,-3.9879,-3.988,-4.0045,-4.0049,-4.0052,0,0,0,0,0,0,-3.9879,-3.9885,-3.9928,-3.9903,-3.9907,-3.9886,-3.9903,-3.9897,-3.9905,-3.9888,-3.9883,-3.9884,-3.9874,-3.9878,-3.9923,-3.9962,-3.988,-3.9882,-4.0042,-4.0046,-4.005,-4.0128,0,0,0,0,0,0,-3.9877,-3.9885,-3.9912,-3.9904,-3.9909,-3.997,-3.9905,-3.9899,-3.991,-3.9903,-3.9898,-3.9895,-3.9872,-3.9919,-3.9925,-3.9965,-3.9884,-4.0038,-4.0044,-4.0049,-4.0122,-4.0135,-4.0146,0,0,0,0,0,-3.9875,-3.9934,-3.9914,-3.992,-3.9942,-3.9972,-3.9975,-3.9948,-3.9913,-3.994,-3.9929,-3.9895,-3.9957,-3.9924,-3.9931,-3.9971,-4.0035,-4.0042,-4.0048,-4.0117,-4.0132,-4.0145,0,0,0,0,0,0,-3.9948,-3.9933,-3.991,-3.9969,-3.9972,-3.9961,-3.9994,-3.9966,-3.9979,-3.9972,-3.9938,-3.9938,-3.9988,-3.9984,-3.9948,-4.0039,-3.999,-3.9998,-4.004,-4.0054,-4.0066,-4.0065,-3.9887,0,0,0,0,0,-3.9971,-3.9997,-3.9982,-4.0035,-4.0038,-4.0016,-4.0028,-4.0007,-4.0009,-4.001,-4.0002,-4.0006,-4.0026,-4.004,-4.0058,-4.0121,-4.0119,-4.0152,-4.0164,-4.0174,-4.0181,-4.0213,-4.0228,-4.0073,-4.0073,-4.0073,0,0,-4.0019,-4.0014,-4.0032,-4.0049,-4.005,-4.0077,-4.0018,-4.0049,-4.0068,-4.0015,-4.0057,-4.0051,-4.0053,-4.0107,-4.0131,-4.0106,-4.0223,-4.0182,-4.019,-4.0192,-4.0221,-4.0236,-4.0249,-4.0078,-4.0077,-4.0076,0,0,-4.0119,-4.0118,-4.0161,-4.0163,-4.0164,-4.0148,-4.0159,-4.0152,-4.0146,-4.0187,-4.0147,-4.017,-4.0206,-4.0208,-4.0214,-4.0314,-4.0282,-4.0321,-4.0382,-4.0414,-4.0426,-4.0436,-4.0471,-4.0484,-4.0328,-4.0328,-4.0328,0,-4.0178,-4.0217,-4.0187,-4.0221,-4.0229,-4.0182,-4.0225,-4.0228,-4.0235,-4.0241,-4.0213,-4.0256,-4.0254,-4.0308,-4.0332,-4.0339,-4.0349,-4.0321,-4.0426,-4.0437,-4.0446,-4.0479,-4.0492,-4.0333,-4.0332,-4.0332,-4.0331,0,-4.0289,-4.0317,-4.0351,-4.0359,-4.0371,-4.0409,-4.0385,-4.04,-4.0378,-4.0366,-4.0408,-4.0404,-4.0419,-4.043,-4.0409,-4.0481,-4.0465,-4.0432,-4.0382,-4.0466,-4.0496,-4.0508,-4.0339,-4.0338,-4.0336,-4.0335,0,0,-4.0436,-4.0425,-4.0438,-4.044,-4.0438,-4.0458,-4.0494,-4.0508,-4.0522,-4.0529,-4.0557,-4.0588,-4.0557,-4.0564,-4.0543,-4.0571,-4.0648,-4.0534,-4.0534,-4.0555,-4.0726,-4.0749,-4.0764,-4.0628,-4.063,-4.0632,-4.0725,0,-4.0532,-4.0592,-4.0566,-4.0629,-4.0653,-4.0608,-4.0639,-4.064,-4.0629,-4.0648,-4.0636,-4.0658,-4.0616,-4.062,-4.0645,-4.0634,-4.0682,-4.0627,-4.0653,-4.0655,-4.0653,-4.078,-4.0806,-4.0894,-4.0737,-4.0739,-4.074,0,-4.0653,-4.0663,-4.0728,-4.072,-4.0729,-4.0757,-4.0768,-4.0786,-4.0787,-4.0776,-4.0784,-4.0756,-4.0789,-4.074,-4.0785,-4.0748,-4.0757,-4.0753,-4.0756,-4.0757,-4.0702,-4.0784,-4.0922,-4.0935,-4.0758,-4.0757,-4.0756,0,-4.0752,-4.0783,-4.0825,-4.0828,-4.0819,-4.084,-4.0837,-4.0835,-4.0845,-4.0854,-4.086,-4.0874,-4.0881,-4.0892,-4.0868,-4.0834,-4.0916,-4.0865,-4.0908,-4.0909,-4.0927,-4.0926,-4.1068,-4.0935,-4.0935,-4.0935,-4.0934,0,-4.0862,-4.0904,-4.0869,-4.0895,-4.0939,-4.0908,-4.0953,-4.0945,-4.0943,-4.0967,-4.0929,-4.0952,-4.0919,-4.0938,-4.092,-4.096,-4.0964,-4.0956,-4.095,-4.0959,-4.096,-4.0964,-4.0957,-4.0938,-4.0937,-4.0937,-4.0936,0,-4.0981,-4.0959,-4.1002,-4.099,-4.0988,-4.1021,-4.101,-4.1033,-4.1019,-4.1049,-4.1054,-4.1033,-4.1054,-4.1031,-4.105,-4.1038,-4.1091,-4.1077,-4.1091,-4.1086,-4.113,-4.1126,-4.1279,-4.1297,-4.1154,-4.1155,-4.1156,0,-4.1052,-4.1082,-4.1073,-4.1085,-4.1085,-4.1106,-4.1116,-4.1086,-4.1098,-4.11,-4.1122,-4.114,-4.1152,-4.1187,-4.1173,-4.1187,-4.1173,-4.1225,-4.1175,-4.1182,-4.1172,-4.117,-4.1173,-4.1235,-4.1237,-4.1238,-4.124,0,-4.118,-4.1168,-4.1183,-4.1195,-4.1207,-4.1215,-4.122,-4.1232,-4.1201,-4.1217,-4.1237,-4.1246,-4.1265,-4.1283,-4.1293,-4.129,-4.126,-4.1256,-4.1266,-4.1275,-4.1281,-4.1277,-4.1118,-4.1252,-4.1251,-4.125,-4.1249,-4.1249,-4.1276,-4.13,-4.1297,-4.1315,-4.1316,-4.1321,-4.1341,-4.133,-4.1346,-4.1359,-4.134,-4.1365,-4.1364,-4.1374,-4.1374,-4.1393,-4.1371,-4.1386,-4.139,-4.1394,-4.14,-4.1279,-4.1395,-4.1395,-4.1394,-4.1394,-4.1394,0,-4.1401,-4.1397,-4.1414,-4.1421,-4.1435,-4.1405,-4.1409,-4.1422,-4.1445,-4.1445,-4.1458,-4.1481,-4.1497,-4.1484,-4.1498,-4.1516,-4.1502,-4.152,-4.1518,-4.1518,-4.142,-4.1409,-4.1531,-4.1531,-4.1531,-4.1531,-4.1531,-4.1531,-4.1468,-4.1507,-4.1494,-4.1533,-4.1528,-4.1551,-4.1556,-4.156,-4.156,-4.1587,-4.16,-4.1592,-4.1587,-4.1599,-4.1613,-4.1609,-4.1615,-4.1638,-4.1629,-4.1538,-4.1525,-4.1512,-4.1501,-4.164,-4.164,-4.1724,-4.1725,-4.1726]}]]